TRANSIT 5B-1 DEB, 3166

Orbit data source: Space-Track

TRANSIT 5B-1 DEB, 3166 is space debris in LEO originally from a launch on Sat, 28 Sep 1963 UTC launched from the Air Force Western Test Range (AFWTR). Debris objects in space refer to the collection of defunct objects orbiting the Earth. Examples of debris include non-operational satellites, rocket bodies, and fragments generated from explosions, collisions, or faulty payload assembly.

Loading next visibility...
Identifier
3166, 1963-038H
Orbit
LEO
Country
Flag of USUS
Related business
Manufacturer
Unknown
Mission
Spacecraft
Bus & Motor
Unknown
Mass
Unknown
Launch date (UTC)
1963-09-28 (62 years ago)
Launch vehicle
Unknown
Launch site
Air Force Western Test Range (AFWTR)
Object type
Payload
Rocket body
Debris
Shape & HBR
Unknown
Radar Cross Section
Medium (>0.1 m² and <1 m²)

Expand to show TLE details & history
Last TLE update: 17 hours ago

TLE from 17 hours ago
0 TRANSIT 5B-1 DEB
1 03166U 63038H   25261.14719880  .00000063  00000-0  89948-4 0  9991
2 03166  89.9792 333.8321 0043376  76.0590 312.1511 13.44924181555023
Epoch: 2025-09-18T03:31Z
TLE epoch observation values (Epoch: 2025-09-18T03:31:57.976Z)
Latitude
27.87909°
Longitude
-76.46149°
Altitude
1,072.798 km
Speed
7.329 km/s
True Right ascension
22h 15m 22s
True Declination
27° 44' 35"
Sunlit
Object was in full shadow at epoch
Visualization orbit readout
Latitude
Unknown
Longitude
Unknown
Altitude
Unknown
Speed
Unknown
Apparent Right ascension
Unknown
Apparent Declination
Unknown
Sunlit
N/A
Visualization observer readout
Local Sidereal Time
13:51:01
Azimuth
Unknown
Elevation
Unknown
Doppler factor
Unknown
Orbital elements
Apogee altitude
1,120.435 km
Perigee altitude
1,055.664 km
Semi-major axis
7,466.186 km
Eccentricity
0.00434
Inclination
89.9792°
RAAN
333.8321°
Arg. of periapsis
76.059°
True anomaly
311.78125°
Mean anomaly
312.1511°
Eccentric anomaly
311.96631°
Mean motion
3.3643 °/min
Orbital period
107.01 mins
BSTAR
0.000089948
Loading maneuver chart data...
Computing Atmospheric mass density...

Documentation

Showing up to 5 results
|